Regional Weather Roundup
Issued by NWS

Home | Current Version | Previous Version | Graphics & Text | Print | Product List | Glossary Off
Versions: 1 2 3 4 5 6 7 8 9 10 11 12 13 14 15 16 17 18 19 20 21 22 23 24 25 26 27 28 29 30 31 32 33 34 35 36 37 38 39 40 41 42 43 44 45 46 47 48 49 50

000
ASUS43 KMPX 041901
RWRMN
WEATHER ROUNDUP FOR MINNESOTA
NATIONAL WEATHER SERVICE TWIN CITIES/CHANHASSEN MN
200 PM CDT MON MAY 04 2015


NOTE: "FAIR" INDICATES FEW OR NO CLOUDS BELOW 12,000 FEET WITH NO
SIGNIFICANT WEATHER AND/OR OBSTRUCTIONS TO VISIBILITY. N/A MEANS
CURRENT SKY AND/OR WEATHER CONDITIONS ARE NOT AVAILABLE.

MNZ060>063-068>070-042000-
   Twin Cities Metro

CITY           SKY/WX    TMP DP  RH WIND       PRES   REMARKS
TWIN CITIES    MOSUNNY   67  29  24 N7        30.19S
ST PAUL        MOSUNNY   68  31  25 NE9       30.19S
CRYSTAL        MOSUNNY   71  33  24 NE8       30.18S
LAKEVILLE      MOSUNNY   66  36  32 NE7       30.18F
EDEN PRAIRIE   SUNNY     67  32  27 E6        30.18S
SOUTH ST PAUL  MOSUNNY   68  29  23 NE8       30.18F
LAKE ELMO      FAIR      68  34  28 CALM      30.20S
$$
MNZ001>005-007-008-013>017-022>024-027-028-042000-
   Northwest Minnesota

CITY           SKY/WX    TMP DP  RH WIND       PRES   REMARKS
BEMIDJI        SUNNY     61  25  25 SW6       30.23S
HALLOCK        PTSUNNY   63  23  22 W9        30.20F
ROSEAU         MOSUNNY   64  25  22 W12       30.21F
WARROAD        MOSUNNY   57  36  44 E7        30.21F
THIEF RVR FALL PTSUNNY   63  27  25 W6        30.23S
CROOKSTON      MOSUNNY   66  30  26 SW5       30.22F
FOSSTON        SUNNY     64  27  24 CALM      30.23F
DETROIT LAKES  PTSUNNY   61  32  33 CALM      30.24S
MOORHEAD       PTSUNNY   64  25  22 W6        30.22F
PARK RAPIDS    PTSUNNY   63  29  27 MISG      30.21F
MAHNOMEN       FAIR      64  28  25 SE3       30.22F
$$
MNZ006-009>011-018-025>026-042000-
   North Central Minnesota

CITY           SKY/WX    TMP DP  RH WIND       PRES   REMARKS
BAUDETTE       SUNNY     61  28  28 MISG      30.22F
FLAG ISLAND    PTSUNNY   52  30  43 SE9       30.20F
INTL FALLS     PTSUNNY   59  28  30 NW9       30.21S
WASKISH        SUNNY     61  36  39 CALM      30.24S
BIG FORK       SUNNY     64  21  19 N3        30.22S
LONGVILLE      PTSUNNY   61  25  25 W10G17    30.22F
GRAND RAPIDS   MOSUNNY   61  23  23 N12G17    30.22F
CRANE LAKE     SUNNY     59  25  27 NW9       30.23S
ORR            SUNNY     61  19  20 W8        30.19S
COOK           SUNNY     63  25  23 NW6       30.21F
WALKER         FAIR      61  25  25 CALM      30.22F
$$
MNZ012-019>021-037-042000-
   Northeast Minnesota

CITY           SKY/WX    TMP DP  RH WIND       PRES   REMARKS
DULUTH         MOSUNNY   64  21  19 NW13      30.19S
ELY            SUNNY     61  21  21 NW9G16    30.19S
HIBBING        SUNNY     65  20  17 VRB7G18   30.20F
EVELETH        SUNNY     63  19  19 N7        30.21S
DULUTH HARBOR  MOSUNNY   64  21  19 CALM      30.19F
TWO HARBORS    MOSUNNY   68  32  26 NW9G16    30.16S
SILVER BAY     MOSUNNY   66  21  18 NW5       30.16R
GRAND MARAIS     N/A     48  38  68 SW12      30.17S
G MARAIS ARPRT SUNNY     61  25  25 NW9       30.18R
$$
MNZ029>031-032-039>041-046>048-054>057-064-042000-
   West Central Minnesota

CITY           SKY/WX    TMP DP  RH WIND       PRES   REMARKS
FERGUS FALLS   PTSUNNY   63  34  34 NE5       30.22S
WHEATON        PTSUNNY   64  28  25 N7        30.22F
MORRIS         MOSUNNY   70  28  21 N8        30.20S
ALEXANDRIA     MOSUNNY   65  30  27 CALM      30.23S
ELBOW LAKE     FAIR      64  32  29 N7        30.21S
WADENA         CLOUDY    61  34  36 NE6       30.22S
GLENWOOD       MOSUNNY   68  30  24 NE9       30.22S
APPLETON       MOSUNNY   72  23  16 SE5       30.19F
BENSON         MOSUNNY   70  18  13 E5        30.21S
ORTONVILLE     MOSUNNY   70  25  18 NE8       30.19F
MADISON        MOSUNNY   70  23  17 NE9       30.19F
WILLMAR        FAIR      70  28  21 NE10      30.22S
$$
MNZ033>034-036-042>043-049>051-058-059-042000-
   Central Minnesota

CITY           SKY/WX    TMP DP  RH WIND       PRES   REMARKS
ST CLOUD       SUNNY     68  31  25 N8        30.20S
SAUK CENTRE    FAIR      65  30  26 NE6       30.21S
PAYNESVILLE    SUNNY     65  30  27 N10G17    30.21S
AITKIN         PTSUNNY   66  16  14 W8        30.20S
PINE RIVER     CLOUDY    61  34  36 N6        30.25F
BRAINERD       PTSUNNY   62  30  29 N10       30.23S
STAPLES        PTSUNNY   61  28  29 CALM      30.22S
LONG PRAIRIE   FAIR      63  30  29 NW3       30.22S
LITTLE FALLS   MOSUNNY   64  30  27 CALM      30.21S
LITCHFIELD     SUNNY     70  28  21 N6        30.20S
BUFFALO        SUNNY     68  28  22 NE9G16    30.21R
MAPLE LAKE     SUNNY     69  35  28 N8        30.21R
$$
MNZ037-044-045-052-053-042000-
   East Central Minnesota

CITY           SKY/WX    TMP DP  RH WIND       PRES   REMARKS
PRINCETON      SUNNY     70  28  21 NW12G21   30.20S
MORA           MOSUNNY   64  32  29 NW9G17    30.22S
CAMBRIDGE      MOSUNNY   70  43  37 N6G17     30.18S
RUSH CITY      MOSUNNY   67  31  26 N6        30.20S
MOOSE LAKE     MOSUNNY   64  28  25 N7        30.18S
HINCKLEY       FAIR      66  32  28 NW10      30.20S
CLOQUET        MOSUNNY   64  12  13 N3G22     30.20S
MCGREGOR       PTSUNNY   63  27  25 NW9       30.22R
$$
MNZ071>073-080-081-089-090-097-098-042000-
   Southwest Minnesota

CITY           SKY/WX    TMP DP  RH WIND       PRES   REMARKS
MONTEVIDEO     SUNNY     73  25  16 E9        30.20S
GRANITE FALLS  SUNNY     70  27  20 NE8       30.20F
CANBY          MOSUNNY   70  29  22 N6        30.19F
MARSHALL       SUNNY     70  27  19 NE13      30.17F
REDWOOD FALLS  SUNNY     71  28  20 NE10G20   30.17F
OLIVIA         SUNNY     68  28  22 N12       30.18F
PIPESTONE      MOSUNNY   70  23  17 E7G18     30.17S
WINDOM         PTSUNNY   70  27  19 NE14      30.17S
WORTHINGTON    CLOUDY    68  28  22 NE17G23   30.17S
JACKSON        CLOUDY    70  21  16 E16G25    30.17S
TRACY          MOSUNNY   71  26  18 NE9G16    30.17F
SLAYTON        PTSUNNY   69  22  16 NE14G21   30.17F
$$
MNZ065>067-074>077-082>085-091>093-042000-
   South Central Minnesota

CITY           SKY/WX    TMP DP  RH WIND       PRES   REMARKS
MANKATO        MOSUNNY   66  32  28 NE13      30.18S
NEW ULM        MOSUNNY   70  27  19 NE14G20   30.17S
ST JAMES       MOSUNNY   70  25  18 N13       30.18S
FAIRMONT       PTSUNNY   70  28  21 NE14G22   30.16S
GLENCOE        SUNNY     69  36  29 NE3G16    30.18F
FARIBAULT      MOSUNNY   66  32  28 NE12G18   30.18S
OWATONNA       MOSUNNY   66  34  30 NE10G18   30.18S
WASECA         MOSUNNY   64  34  32 N15       30.19S
ALBERT LEA     PTSUNNY   66  37  34 NE9       30.17S
$$
MNZ078>079-086>088-094>096-042000-
   Southeast Minnesota

CITY           SKY/WX    TMP DP  RH WIND       PRES   REMARKS
ROCHESTER      PTSUNNY   65  36  34 N8        30.18F
RED WING       MOSUNNY   70  30  23 E7        30.16F
STANTON        MOSUNNY   69  32  24 NE12G17   30.16F
DODGE CENTER   MOSUNNY   66  34  30 NE10G18   30.17S
WINONA         MOSUNNY   70  37  30 E6        30.16S
AUSTIN         PTSUNNY   64  39  39 NE7       30.17S
PRESTON        MOSUNNY   64  38  38 NE8       30.18R
$$
ABBREVIATIONS USED IN REMARKS
   TC - TEMPERATURES IN CELSIUS
  WCI - WIND CHILL INDEX
   HX - HEAT INDEX
  VSB - VISIBILITY
$$



USA.gov is the U.S. government's official web portal to all federal, state and local government web resources and services.